Theta_e
317 319 321 321 321 321 322 321 321 321 321 319 319 319 319 319 319 321 322 323 322 322 327 326 326 327 325 327 332 331 334 335 335 338 340 342 344 345 345 345 344 340 335 336 337 337 337 338 335 334 332 329 336 346 348 348 347 344 342 342 342 342 342 342 340 339 337 337 339 339 338 337 336 336 336 335 334 335 334 334 335 336 337 338 338 339
318 320 322 322 320 319 319 319 320 319 319 319 319 320 320 319 320 322 322 323 319 319 326 326 324 326 324 329 333 332 334 335 332 333 335 339 341 342 344 344 344 342 338 338 339 339 338 340 338 335 333 332 338 346 348 348 348 347 345 344 344 344 343 343 342 340 338 336 337 338 339 338 337 336 336 336 336 335 335 335 336 336 336 337 338 339
320 321 322 319 318 317 318 319 320 319 320 320 320 320 319 321 322 322 323 322 320 321 326 327 325 328 326 328 331 333 334 334 333 333 333 335 337 339 341 342 343 342 341 341 341 340 339 340 341 338 336 336 341 346 348 349 350 348 346 344 345 345 344 343 342 342 340 338 337 338 340 340 339 338 338 339 339 337 336 336 337 337 337 337 338 339
320 323 322 317 317 319 319 319 320 319 320 320 320 319 319 321 320 322 326 323 321 320 322 326 325 330 333 331 332 330 329 332 333 334 333 333 334 336 338 339 340 342 342 342 342 342 341 341 341 340 338 340 342 346 349 349 349 349 346 344 345 346 345 344 343 343 342 340 340 341 342 342 342 342 341 341 341 340 339 338 338 337 337 338 338 338
321 322 319 316 318 320 320 320 320 320 321 321 321 320 321 322 320 321 323 322 324 321 320 324 326 336 341 337 337 330 327 332 332 333 334 333 334 334 334 335 336 340 341 342 343 342 341 340 340 340 340 341 342 345 347 347 348 348 346 344 345 346 346 344 344 343 342 342 343 343 343 344 343 343 343 343 342 341 341 339 338 337 337 338 337 336
321 319 317 318 320 320 320 322 321 321 322 322 322 321 322 324 323 322 320 321 325 324 321 319 321 334 343 339 336 331 331 334 330 331 332 331 333 332 332 334 333 335 338 339 342 340 341 340 339 339 339 340 341 342 343 345 346 346 345 344 345 346 345 344 344 343 342 342 342 343 343 343 344 343 343 343 342 342 342 340 339 338 338 337 336 336
321 319 318 321 322 322 322 323 322 322 322 323 324 324 322 321 321 321 320 318 322 321 317 319 321 326 335 337 332 328 336 341 332 331 331 329 332 332 331 333 332 333 334 336 338 339 339 340 338 337 338 339 339 340 341 343 344 345 344 345 346 346 345 345 344 342 342 342 341 342 343 343 343 343 342 342 342 343 343 341 340 339 339 337 336 337
323 322 320 321 323 323 323 323 323 322 322 325 327 324 322 322 321 323 321 318 321 319 318 325 325 320 325 331 327 326 339 347 342 339 334 327 328 331 331 331 332 333 333 333 334 336 337 338 338 337 337 338 338 339 341 341 343 344 345 345 346 346 345 345 344 343 342 342 342 342 342 342 343 343 343 343 342 342 342 341 340 339 338 338 336 336
323 323 322 323 322 321 324 325 323 321 323 328 325 321 322 324 322 323 322 322 324 320 321 327 321 317 327 331 327 332 342 345 346 344 338 329 326 329 330 331 332 332 333 334 334 334 335 337 339 338 338 339 339 340 341 342 343 344 345 346 345 345 345 345 344 343 343 342 342 342 342 342 343 343 343 343 342 341 341 341 339 338 338 338 336 334
321 321 321 322 322 323 326 326 323 323 324 323 319 320 324 325 326 326 323 326 328 322 322 326 318 317 328 333 330 334 335 335 337 337 334 327 324 327 328 329 331 331 333 334 335 335 335 336 338 340 340 340 341 341 343 344 345 345 346 346 346 346 345 345 344 343 342 341 341 341 341 342 342 342 342 342 341 340 340 340 339 339 338 338 336 331
321 319 319 320 321 323 324 322 319 320 320 317 318 321 322 326 332 337 336 330 326 325 325 326 319 317 323 330 330 327 324 327 329 329 328 324 324 326 327 327 329 331 333 335 337 337 337 337 339 340 342 341 342 343 343 344 345 346 346 346 346 346 345 345 344 342 341 340 340 340 341 340 340 341 342 341 340 339 339 339 339 339 339 337 335 326
324 320 319 320 319 320 321 319 316 316 316 317 324 322 319 327 330 335 341 328 321 326 328 326 321 317 319 322 323 322 321 323 324 326 327 326 326 328 328 328 329 331 334 337 339 340 339 339 339 340 341 342 342 342 342 343 343 344 345 345 345 344 345 344 343 342 341 341 341 341 340 340 339 340 340 340 338 336 337 338 339 340 338 335 333 325
330 324 322 319 319 318 319 323 320 322 322 319 327 325 318 327 326 328 336 326 323 327 322 322 321 317 320 319 318 322 322 321 321 323 326 327 328 330 331 331 331 332 335 337 339 341 341 341 340 340 340 341 341 341 341 341 341 343 342 344 344 344 345 344 343 343 342 341 340 340 340 340 339 339 339 338 336 336 337 339 339 339 336 334 333 325
329 326 324 322 322 319 319 325 321 322 326 319 325 326 320 325 324 327 332 323 322 325 319 319 320 318 323 321 318 323 321 319 319 320 322 325 328 332 333 332 333 334 334 337 339 340 342 342 342 342 341 341 341 340 342 342 341 342 343 343 344 345 345 345 344 342 342 341 340 340 340 339 338 339 339 338 337 337 338 339 339 335 333 333 330 323
323 324 326 321 320 320 320 322 319 321 325 320 323 324 323 328 324 324 331 324 320 324 322 319 318 320 323 321 321 321 318 317 317 317 317 318 321 324 328 332 334 335 335 336 338 339 341 342 342 343 343 342 341 339 340 342 343 342 343 344 344 345 345 344 343 342 341 341 339 339 339 337 338 338 339 339 338 339 339 339 336 330 330 330 324 318
320 321 325 320 317 319 320 318 319 323 323 319 321 323 321 326 327 323 325 327 323 324 326 321 320 326 323 321 323 318 316 317 314 315 316 314 316 316 321 329 332 335 337 336 337 338 339 341 342 343 343 343 341 337 335 339 343 343 343 344 345 345 345 344 343 342 341 340 338 338 337 337 338 338 339 340 339 339 338 338 336 332 334 329 316 313
320 322 326 324 320 319 318 317 318 318 321 325 323 323 320 319 327 325 320 325 325 322 327 322 319 326 321 319 324 320 317 319 314 314 315 313 315 315 316 323 327 332 335 336 337 338 338 339 340 342 343 343 341 336 334 337 342 344 344 345 345 345 344 343 342 341 340 339 338 338 337 337 337 338 339 340 339 337 335 336 336 335 334 325 313 311
322 326 327 324 323 321 316 316 320 315 319 328 324 322 321 316 325 327 320 328 329 322 330 327 319 325 325 322 327 324 319 319 316 315 314 313 315 314 315 318 322 326 329 334 337 337 338 339 339 340 342 343 341 337 334 335 339 343 342 342 343 343 340 338 337 338 338 338 338 338 338 337 337 337 337 338 338 336 334 334 334 332 327 318 311 310
321 326 329 324 322 324 320 320 327 322 317 320 318 319 320 317 323 326 321 326 326 319 328 330 322 324 326 323 324 322 320 319 317 316 316 315 314 314 315 316 318 321 322 326 331 334 336 336 338 340 341 342 341 338 334 333 335 339 339 338 338 339 338 333 331 331 331 332 333 336 337 337 336 336 337 337 337 336 335 332 329 327 321 313 310 309
322 322 327 327 321 321 327 327 328 327 322 320 320 322 327 325 321 322 322 323 323 322 326 330 327 326 327 326 322 319 319 318 316 317 317 314 313 314 315 316 317 319 320 320 323 325 327 330 334 338 340 341 341 339 337 335 335 336 335 336 336 337 338 335 330 329 327 325 327 331 335 335 334 334 335 336 336 337 337 332 326 321 315 309 308 308
328 323 323 331 328 323 326 323 320 322 322 324 328 326 326 327 321 318 320 320 323 327 329 328 328 329 330 328 322 317 317 317 315 317 315 312 313 314 316 317 318 319 319 320 321 322 322 324 328 334 338 340 341 340 339 336 336 336 336 337 338 339 340 336 330 330 329 326 325 328 332 333 334 334 334 335 336 334 334 332 325 317 310 307 308 308
324 325 325 330 330 327 326 320 317 318 318 323 327 322 320 324 325 324 323 323 325 327 328 327 325 329 327 322 320 317 315 314 313 312 313 311 312 315 317 318 319 318 319 319 320 321 321 322 324 329 334 338 340 340 339 339 338 338 338 338 338 339 341 339 334 331 330 329 328 330 333 335 335 335 335 334 331 329 329 326 319 311 308 308 309 309
321 331 331 325 324 324 321 317 315 315 318 321 321 319 321 324 326 330 329 328 326 323 324 325 324 330 327 318 317 316 312 313 313 311 312 312 313 315 317 317 317 317 317 317 318 319 320 321 323 325 329 332 335 337 337 337 338 338 338 338 338 338 340 341 338 335 333 332 332 333 335 336 335 335 333 328 323 324 323 318 311 308 308 309 310 311
322 329 326 326 331 328 322 318 316 316 320 322 319 318 321 321 321 329 329 325 324 324 325 325 324 330 327 317 314 314 313 314 314 313 313 312 314 316 317 318 318 318 317 317 317 318 318 319 321 322 325 326 329 330 331 332 333 335 337 337 337 337 338 339 337 336 336 334 333 333 333 334 333 333 328 320 316 318 316 311 308 308 309 311 311 312
318 322 323 326 330 326 325 326 322 323 324 323 320 317 318 320 318 322 325 323 324 326 326 324 327 329 325 316 313 314 318 317 314 314 314 312 313 315 316 318 318 318 319 318 318 317 318 320 321 322 324 324 326 327 328 329 330 332 334 334 334 335 336 336 335 334 334 331 329 327 328 329 330 328 323 314 311 312 310 308 309 311 312 313 313 313
316 320 321 322 321 317 322 327 324 323 322 319 317 314 314 317 315 315 321 322 324 327 326 325 328 328 323 320 317 316 320 320 314 313 314 314 314 315 316 317 317 317 318 318 319 319 319 320 320 322 323 324 325 325 326 327 328 329 330 331 332 332 332 333 332 332 331 330 329 328 328 328 325 321 316 311 309 308 308 310 312 312 313 313 314 314
323 322 322 326 326 318 317 322 321 317 315 314 314 311 312 315 316 317 319 320 325 328 323 320 322 322 320 323 321 316 316 317 314 312 313 313 314 314 315 315 316 316 316 317 318 319 320 321 321 322 322 323 323 324 325 325 325 326 326 327 328 328 328 329 328 328 328 328 327 327 326 324 320 316 312 310 310 310 311 313 314 314 315 315 315 315
325 319 317 323 326 321 321 323 319 312 310 311 311 310 312 314 314 315 315 318 322 319 313 316 320 317 316 321 320 316 314 315 313 311 311 312 312 313 314 315 315 315 316 316 317 317 318 319 320 321 322 322 322 323 323 323 324 324 324 324 324 324 324 325 325 325 325 324 324 323 322 319 316 314 312 311 313 313 315 316 315 316 317 316 316 315
321 313 311 314 317 320 323 321 315 311 310 310 309 310 311 311 312 312 311 315 318 313 310 313 314 310 311 317 316 314 313 313 312 311 311 311 312 313 314 314 314 315 314 314 315 315 316 316 317 318 319 319 321 320 321 322 322 322 322 322 322 322 322 322 322 321 321 320 320 320 319 316 315 316 315 315 316 317 317 318 317 317 317 316 315 315
316 318 316 312 311 314 316 314 311 309 308 308 308 309 311 312 313 313 311 313 313 312 311 310 310 309 312 316 314 312 312 311 311 311 311 311 312 312 313 313 313 313 314 313 313 314 314 314 315 315 316 317 317 318 318 319 319 320 320 320 320 320 320 320 319 319 318 318 318 318 318 317 317 317 317 317 318 318 317 317 316 315 314 314 314 313
308 316 317 312 309 312 313 310 308 306 306 307 309 311 312 311 311 310 310 311 310 311 313 311 311 314 314 313 312 312 311 311 311 312 312 312 312 312 313 313 313 313 313 313 313 313 313 314 314 314 315 315 315 315 316 316 316 317 317 317 317 317 317 317 317 316 315 315 314 314 315 315 316 316 316 316 316 316 315 314 313 312 312 312 311 311
309 312 314 310 309 313 313 309 311 313 310 308 312 314 311 310 313 313 312 312 312 314 316 312 311 316 316 312 312 312 311 311 311 311 311 311 312 312 312 312 312 312 312 312 313 313 313 313 314 314 314 314 314 314 314 314 314 314 314 314 314 314 313 313 313 312 312 311 311 311 311 312 312 312 312 312 312 311 311 311 310 310 310 310 310 310
313 313 313 309 309 315 314 311 318 318 311 312 318 317 311 311 313 313 313 316 316 315 315 314 314 316 314 312 314 313 311 310 311 311 311 311 311 311 311 311 311 312 311 312 312 312 312 312 312 313 313 313 313 313 313 313 313 313 312 312 312 312 311 311 312 311 311 312 311 311 311 311 311 310 310 310 310 310 310 310 309 309 309 309 310 309
312 312 313 309 309 316 315 313 316 313 309 315 319 315 312 313 313 312 315 320 317 313 314 316 316 315 313 313 314 314 312 312 311 311 311 311 311 311 311 310 311 311 311 311 311 311 311 311 311 312 312 312 312 312 312 312 312 312 312 311 311 311 311 311 311 311 312 312 312 312 312 311 312 311 311 311 312 311 311 311 311 310 310 309 308 307
314 312 311 309 310 315 313 310 310 313 313 314 313 311 314 315 315 315 316 316 315 314 314 314 314 314 313 311 311 311 311 311 311 312 312 311 310 310 309 309 308 308 308 309 309 310 310 311 311 311 311 311 311 311 311 311 312 312 312 311 311 311 311 311 311 311 312 311 312 311 311 312 312 312 311 311 311 311 311 311 310 309 308 307 306 305
315 314 312 311 311 312 311 309 310 313 314 312 312 313 314 314 315 316 315 313 313 315 315 314 313 311 310 309 309 310 311 310 310 310 310 308 307 306 306 306 305 305 305 305 306 308 309 310 311 311 311 311 311 311 311 311 311 311 311 311 311 311 311 311 311 311 311 311 311 311 311 312 311 310 310 309 309 308 308 307 306 306 305 304 303 303
312 315 312 311 310 311 312 314 313 311 311 312 314 314 313 313 314 316 318 316 311 311 312 314 314 311 308 309 310 309 309 308 307 307 306 305 304 302 302 303 302 303 303 303 303 304 306 309 310 311 311 311 310 311 310 310 310 310 310 310 310 310 309 309 309 309 309 310 310 310 310 310 309 308 308 307 306 305 304 304 303 302 302 301 301 301
309 313 312 311 311 312 312 313 313 311 311 314 315 312 310 310 310 312 318 318 311 307 308 312 315 311 308 309 310 309 309 308 307 306 304 303 302 302 302 302 301 302 302 302 303 303 304 307 309 311 311 310 310 310 310 310 309 309 309 309 309 309 308 308 308 307 307 307 307 307 307 307 306 306 305 304 303 303 302 301 301 300 300 300 301 301
309 311 311 310 311 312 311 312 313 312 312 315 314 310 308 308 308 310 317 317 309 305 307 310 312 310 309 309 310 309 309 308 307 306 304 303 303 302 302 302 302 302 301 301 303 304 304 306 308 310 310 310 310 310 309 309 309 308 308 308 308 308 307 307 307 306 306 306 305 305 305 305 304 304 303 302 301 301 300 300 300 300 300 300 301 301
307 309 310 309 311 312 312 313 313 311 311 312 312 310 307 306 307 310 315 314 307 304 307 309 309 310 310 310 309 310 310 308 307 305 303 303 303 302 302 302 302 302 302 301 302 304 305 306 308 310 310 309 310 309 309 309 308 308 308 308 307 307 307 306 306 305 305 305 304 304 304 303 303 302 301 301 300 300 300 300 300 300 300 301 301 301
307 308 309 309 310 310 309 310 311 311 312 310 310 309 306 306 308 313 314 310 305 305 308 309 309 310 309 307 308 309 307 305 304 303 302 302 303 302 302 302 302 302 302 302 303 305 305 306 308 309 310 309 310 310 309 308 308 308 308 307 307 307 307 306 305 305 305 304 304 304 303 302 302 301 301 301 300 300 300 300 300 300 300 300 301 301
308 309 308 307 308 308 309 309 309 310 309 306 306 305 304 307 312 313 310 305 303 304 308 308 307 306 304 303 304 304 303 302 302 302 302 302 302 303 303 303 303 303 303 304 305 305 305 306 308 309 309 309 309 309 309 308 308 307 307 307 306 306 306 305 304 304 304 304 303 303 302 302 301 301 301 301 300 300 300 300 300 300 300 300 300 300
309 310 311 311 309 307 308 308 309 310 307 304 304 305 305 307 309 307 304 302 302 304 306 306 304 303 302 302 302 301 301 301 301 301 301 302 302 303 303 303 304 304 304 304 305 305 305 306 307 308 308 308 308 308 308 308 307 307 307 306 306 305 305 304 304 304 304 303 303 302 302 302 302 301 301 301 300 300 300 299 300 300 300 300 300 299
308 309 312 312 310 308 309 310 310 309 306 303 303 304 304 304 304 301 301 302 302 303 305 305 304 302 302 301 301 301 301 301 301 301 301 302 302 303 303 304 304 304 304 304 304 305 305 306 306 306 306 306 306 307 307 307 306 306 306 305 305 305 304 304 303 303 303 303 302 302 302 302 301 301 301 300 300 299 299 299 299 300 300 299 299 299
308 308 308 308 307 308 310 311 307 304 303 303 302 301 301 301 301 300 300 301 302 303 304 303 302 302 301 300 301 301 301 301 301 301 301 302 303 302 303 304 304 304 304 304 304 305 305 306 306 305 305 305 306 307 307 307 306 305 305 305 305 304 304 303 303 302 302 302 302 302 302 302 301 301 300 300 299 299 299 299 299 299 299 299 299 299
303 301 302 304 306 305 304 304 302 301 302 303 302 300 300 300 300 300 300 301 301 301 301 301 301 301 300 300 301 301 301 301 301 301 302 303 303 303 303 304 304 305 304 304 304 305 305 305 305 304 305 305 306 307 307 306 305 305 305 304 304 303 303 303 302 302 302 302 302 302 302 301 301 300 300 300 299 299 299 299 299 299 299 299 299 299
302 299 302 305 305 305 305 303 301 300 301 301 301 301 300 300 300 300 300 300 300 300 300 300 300 300 300 300 300 300 301 301 301 302 303 303 303 303 304 304 305 305 304 304 304 305 305 305 304 304 305 306 306 306 305 304 304 304 304 303 303 303 303 302 302 302 302 302 302 302 301 301 300 300 300 299 299 299 299 299 299 298 298 299 299 299
302 301 304 304 303 304 305 303 300 300 301 301 301 301 300 300 300 300 300 300 300 300 300 300 300 300 300 300 300 300 301 301 302 303 303 303 303 304 304 304 305 304 304 304 305 305 305 305 304 304 305 306 306 305 304 303 303 303 303 303 303 303 302 302 301 301 302 302 302 301 301 300 300 299 299 299 299 299 299 298 298 298 298 298 298 298
301 302 303 302 302 303 303 300 300 301 301 300 300 300 300 299 299 299 300 300 300 300 300 300 300 301 300 300 301 301 301 302 302 303 303 303 304 304 304 304 304 304 304 305 304 304 305 305 305 305 305 305 305 304 304 303 303 303 303 302 302 301 301 301 301 301 301 301 301 300 300 299 299 298 299 299 299 299 298 298 297 297 297 298 298 298
301 302 301 301 302 302 301 300 300 301 300 299 299 299 299 299 299 299 300 300 300 300 300 300 301 301 301 301 301 301 301 302 303 303 303 303 303 304 304 304 304 304 304 305 304 304 304 304 305 305 305 304 304 304 303 303 302 302 302 301 301 301 300 301 301 301 301 301 300 299 299 298 299 299 299 299 298 297 298 298 298 297 298 298 298 298
300 300 300 301 302 301 299 299 299 299 299 299 299 299 299 299 299 300 300 300 300 300 300 300 301 301 302 302 302 302 302 303 303 303 303 304 304 303 304 304 304 304 304 304 304 304 304 304 305 304 304 304 303 303 302 302 302 302 301 301 301 300 300 301 300 300 300 299 299 298 298 299 299 299 298 298 297 297 298 299 299 299 298 298 298 298
Wind_Speed
3 2 2 5 6 6 7 7 7 5 3 2 2 2 4 4 7 8 6 5 2 1 5 5 7 11 12 8 4 11 14 13 14 16 18 21 24 28 30 32 33 35 36 32 30 29 27 26 26 28 29 29 29 28 27 27 27 27 26 25 24 22 21 21 22 22 23 24 25 24 24 23 22 20 19 18 18 18 17 15 14 13 13 13 12 12
3 2 6 7 8 8 7 7 5 4 3 4 2 3 5 4 7 9 7 7 0 2 5 3 3 11 11 6 3 10 11 12 18 18 19 23 26 28 30 32 34 34 34 32 31 30 28 27 26 28 30 31 31 30 29 30 29 29 28 27 26 24 24 24 23 22 23 24 26 25 24 22 21 21 20 18 18 18 17 16 15 15 15 14 13 13
3 4 10 8 6 5 5 6 6 5 5 4 2 0 4 3 4 8 7 6 1 3 3 1 2 9 10 7 5 9 11 14 20 22 21 23 24 28 31 32 32 32 32 32 32 31 30 28 27 28 30 31 32 31 30 30 30 30 30 29 28 27 26 25 23 23 23 23 25 25 23 21 20 20 19 18 17 17 17 17 16 16 15 14 14 14
0 6 8 5 6 5 3 4 5 4 4 3 4 2 5 3 0 4 5 5 3 1 2 2 2 6 6 5 4 8 11 12 16 21 22 22 26 31 32 30 29 30 31 31 32 32 31 30 29 29 30 31 32 32 32 31 32 32 32 30 29 28 28 26 24 23 23 23 25 25 24 22 20 20 19 19 19 19 19 18 17 16 14 15 15 15
6 8 4 2 4 6 4 2 5 3 4 3 6 5 6 6 5 7 5 6 4 2 1 3 4 6 5 5 6 4 5 9 13 16 20 25 30 31 28 27 28 28 30 31 32 31 31 31 30 30 31 32 32 32 32 32 32 33 32 31 30 29 29 27 24 23 23 24 26 27 26 24 23 22 21 22 23 22 21 19 17 16 16 17 17 16
8 9 5 3 2 5 5 4 5 6 3 3 5 11 11 9 8 6 4 5 5 3 3 5 4 5 6 6 6 5 5 6 6 8 17 23 24 24 27 29 29 29 29 31 32 31 31 30 30 30 31 33 33 32 32 31 32 32 31 30 29 29 30 28 25 24 24 24 26 28 29 28 27 26 26 25 25 23 21 19 18 17 18 18 16 15
5 5 3 5 4 4 2 4 5 7 4 3 5 11 11 7 4 4 2 1 1 3 4 4 3 4 6 6 6 6 7 8 4 5 14 19 19 21 26 29 28 29 29 30 32 32 31 30 30 31 31 32 32 31 31 31 31 30 29 29 29 29 30 28 26 25 24 25 26 29 30 30 30 29 28 26 25 23 20 19 18 18 19 17 16 15
3 1 2 3 3 3 1 4 5 8 7 3 5 7 9 7 5 5 4 3 3 2 4 5 4 2 4 5 6 6 7 9 8 6 10 15 19 21 25 28 28 28 28 29 31 33 33 32 30 30 30 30 29 29 29 30 30 30 29 28 29 29 30 28 26 25 25 26 27 29 30 30 30 29 27 26 25 23 21 20 19 19 19 18 16 14
2 3 1 2 2 1 5 4 6 9 4 6 5 6 7 6 5 4 5 3 1 2 3 7 3 2 4 6 5 6 5 8 10 10 9 13 17 19 23 28 28 28 28 28 30 32 34 33 30 28 28 28 28 27 27 28 29 28 28 28 28 29 29 28 27 26 27 28 28 29 30 30 29 28 26 25 24 24 23 22 21 21 21 18 16 15
1 2 3 4 3 3 7 5 8 10 4 4 4 6 5 5 4 3 5 4 3 4 2 6 3 3 3 6 6 6 6 7 9 9 9 16 23 23 22 24 26 27 27 28 28 29 31 32 29 27 28 28 28 26 26 26 27 27 28 28 29 30 29 28 28 28 29 29 28 28 29 29 29 28 26 25 24 23 23 23 24 23 22 19 16 15
5 4 2 2 4 6 6 4 5 8 5 3 6 5 5 6 5 3 2 4 5 3 5 7 2 4 0 5 4 3 4 6 8 9 10 17 27 30 28 26 24 24 24 25 25 25 27 27 25 25 27 28 27 25 24 25 26 26 28 28 29 29 29 28 29 29 28 28 27 27 29 29 28 27 26 25 24 24 24 25 26 25 22 19 17 16
7 2 2 3 3 2 2 1 1 1 1 4 4 4 1 4 4 4 4 4 4 2 6 6 2 4 2 2 4 5 6 6 5 7 10 15 23 30 31 27 23 21 20 20 20 21 23 23 23 24 26 27 26 24 23 24 24 25 27 27 28 28 29 29 29 29 28 28 28 28 28 28 27 25 25 26 25 27 27 27 27 25 22 20 19 17
5 0 2 4 2 4 4 2 3 6 5 4 4 5 2 3 4 2 4 2 2 3 4 4 2 2 1 3 3 6 8 8 6 6 8 11 19 28 31 27 25 22 18 17 17 18 20 22 23 24 25 26 25 22 21 22 23 24 25 27 28 28 29 30 31 30 30 29 28 28 28 28 27 26 26 25 26 27 27 26 26 24 21 21 21 19
4 4 7 5 2 5 5 4 1 3 3 3 4 4 3 1 3 2 3 2 3 3 3 4 2 1 2 2 2 5 7 6 6 8 11 15 20 27 30 28 25 23 19 16 16 18 19 21 23 22 22 22 20 19 21 22 22 22 24 26 27 28 29 31 31 30 30 29 28 28 28 27 27 27 26 26 26 26 25 25 25 22 20 20 20 20
1 4 5 3 3 5 3 3 3 3 2 0 4 5 3 4 3 3 3 3 3 2 3 4 1 2 2 2 3 7 7 4 10 18 23 28 30 31 32 30 26 22 20 18 17 18 20 21 21 20 18 19 18 18 22 24 23 22 23 24 25 27 29 30 31 30 30 29 28 27 26 25 25 26 26 26 26 26 25 25 23 21 20 20 19 19
1 4 5 4 4 4 4 3 1 4 2 2 2 4 1 3 4 1 2 4 3 0 2 2 2 3 3 2 4 5 5 10 19 25 29 31 33 34 33 32 29 24 19 17 18 18 20 21 21 19 17 19 20 20 22 23 24 23 23 23 25 26 28 29 30 30 30 29 27 26 25 24 25 26 26 26 27 29 28 24 21 19 19 20 20 21
2 2 5 6 5 5 5 3 3 4 1 1 3 2 2 3 6 4 1 0 4 2 2 1 2 3 2 2 6 7 8 13 17 20 22 25 29 31 29 28 27 25 21 18 18 19 19 20 20 19 18 20 21 21 21 21 23 25 23 24 27 26 26 28 29 29 28 27 26 25 24 24 25 27 28 28 29 28 25 22 22 21 21 22 23 23
3 2 6 4 2 4 7 4 3 5 3 3 2 2 3 2 4 4 1 3 4 1 3 2 0 3 1 2 6 10 12 12 11 11 15 21 25 26 25 24 22 21 20 19 19 19 20 20 21 20 19 21 22 22 23 22 23 25 25 25 27 26 25 26 26 26 25 25 26 26 26 25 26 29 31 31 30 27 23 23 25 25 25 25 25 26
3 0 6 3 2 6 9 6 3 8 7 4 2 2 2 2 0 1 2 1 1 1 3 4 2 3 3 2 4 8 9 10 10 10 11 15 19 22 24 25 23 22 20 19 20 20 21 23 24 22 21 23 24 25 25 24 23 24 26 25 24 27 30 29 26 22 19 21 24 28 28 27 28 30 32 33 32 29 27 26 26 27 27 27 27 27
2 2 4 5 3 4 6 6 2 6 7 4 3 3 2 3 3 0 1 2 2 2 2 3 3 2 4 4 3 2 6 7 8 9 8 11 18 22 25 28 28 27 25 22 21 21 22 24 25 25 25 26 26 27 28 27 26 26 28 28 26 28 33 32 28 23 19 17 20 26 29 29 29 30 32 34 34 33 31 29 28 29 30 29 29 29
2 2 2 6 4 3 3 2 1 2 3 3 4 4 3 2 1 1 1 1 3 3 2 1 2 4 5 3 6 5 5 6 7 8 8 14 23 27 28 30 31 31 30 28 25 23 22 21 21 24 27 28 29 30 31 31 30 29 30 31 30 30 33 32 29 27 25 22 22 26 30 32 32 32 33 33 34 34 32 30 29 29 29 29 29 28
2 1 1 3 5 3 1 3 1 2 4 3 2 2 1 1 2 2 1 2 1 3 4 3 3 6 5 2 6 4 2 5 8 9 10 17 24 28 30 30 31 32 31 30 29 27 26 24 21 20 23 28 30 32 33 33 34 33 32 32 31 31 33 34 31 29 28 27 28 31 34 35 35 33 32 32 33 33 31 30 29 29 29 29 28 27
1 3 3 1 2 3 6 5 2 1 2 5 3 1 2 2 4 4 2 3 1 1 1 2 1 6 4 3 5 2 2 5 12 14 14 19 24 27 30 29 29 30 29 28 29 28 27 26 23 21 21 23 27 30 33 34 35 35 34 34 33 33 34 36 35 32 31 32 33 35 36 35 34 32 32 32 32 31 30 29 29 28 28 28 26 25
2 3 3 2 4 4 5 5 4 4 5 6 3 2 3 2 2 4 4 2 1 2 0 1 2 6 5 2 5 5 2 3 13 19 18 21 26 29 30 28 27 27 26 26 26 26 27 26 23 21 20 20 22 24 28 31 33 34 34 34 34 34 34 36 36 35 35 34 34 36 36 33 31 30 31 31 30 30 30 29 29 28 28 27 26 25
2 1 3 3 4 5 6 6 5 5 4 2 2 2 3 3 4 2 1 2 1 3 4 3 5 5 4 1 8 12 9 9 19 26 23 21 26 30 30 28 27 26 25 24 23 24 25 25 24 22 20 19 19 20 22 24 27 30 31 32 33 33 34 34 35 36 37 35 31 30 29 28 28 29 30 30 31 31 30 29 29 29 29 28 28 28
2 1 3 4 2 2 1 2 3 3 2 1 1 3 3 3 3 2 1 2 1 3 3 4 5 4 5 5 10 13 12 13 19 26 26 23 25 28 28 28 27 27 26 25 24 23 22 22 23 23 23 21 21 21 21 21 22 24 27 29 31 32 32 32 35 36 36 34 30 28 28 27 28 29 29 30 31 31 30 30 30 30 30 30 29 29
4 2 2 6 6 6 6 6 5 1 2 3 5 6 3 1 2 3 3 2 4 3 3 5 4 5 8 6 8 9 8 8 11 17 22 24 25 25 25 25 26 27 28 27 27 26 24 23 23 23 23 23 23 23 23 22 22 22 24 25 26 28 27 28 30 31 30 30 30 29 27 26 27 29 29 31 32 31 31 30 29 29 30 32 31 28
4 2 0 4 5 6 6 6 3 2 2 5 6 7 5 3 3 4 4 5 5 2 6 4 5 3 7 1 4 6 5 6 9 13 18 19 21 22 23 25 27 28 29 30 30 30 28 28 27 26 26 25 24 24 23 23 22 22 22 23 23 24 23 23 24 25 26 27 28 29 27 25 26 27 30 32 33 33 32 31 30 30 30 31 30 26
5 1 2 4 3 6 5 5 4 3 4 6 7 8 7 5 6 7 8 6 7 5 9 3 4 5 6 1 1 4 3 5 7 9 10 12 15 18 22 25 28 29 30 30 30 30 29 28 28 27 27 26 26 25 23 22 22 21 21 21 21 21 20 20 20 21 23 24 25 27 27 26 26 28 30 32 32 31 30 29 27 27 27 27 26 26
4 1 3 4 3 6 7 7 7 5 5 5 6 9 8 8 10 9 7 5 7 7 11 7 6 8 5 2 2 3 4 3 4 5 8 11 15 18 21 24 26 27 28 28 28 28 27 27 27 27 27 27 26 24 22 20 19 18 17 17 18 17 16 16 16 16 17 17 17 18 20 22 24 25 26 26 25 24 23 23 23 24 25 25 25 26
3 0 2 2 1 6 6 4 3 4 5 5 6 7 7 8 8 7 6 4 4 7 9 7 8 7 4 3 5 6 6 6 7 7 9 11 14 17 21 23 24 25 25 25 26 26 27 27 27 27 26 25 23 21 20 17 15 13 12 11 11 11 10 10 8 7 6 5 5 6 8 10 12 14 15 17 18 18 19 21 21 22 23 24 25 26
2 0 1 3 1 6 4 3 3 1 2 4 7 9 11 9 6 5 5 5 5 5 4 4 4 4 4 5 6 4 3 3 4 4 5 8 10 13 17 19 21 22 23 24 24 25 26 26 26 26 25 23 21 19 17 15 12 11 10 9 8 7 8 6 5 6 5 4 4 3 2 2 5 7 9 12 14 16 18 19 20 21 22 24 26 29
3 3 1 2 1 6 4 4 4 5 4 5 7 8 10 7 5 3 4 5 5 5 3 3 4 5 4 3 4 2 0 1 1 1 3 6 8 11 14 16 19 20 21 22 23 25 25 25 24 24 23 22 21 20 18 16 13 11 9 8 7 6 8 8 8 10 10 8 7 9 9 8 10 11 12 15 18 20 21 22 23 25 27 28 29 32
3 5 3 3 2 4 6 3 5 4 4 6 6 5 5 7 8 6 4 4 3 2 3 3 3 3 3 3 2 3 4 4 3 2 4 6 10 14 17 19 21 22 22 23 24 26 26 26 26 25 24 23 21 19 19 17 16 15 12 10 8 7 10 14 15 17 20 18 14 13 14 14 15 16 18 21 24 26 28 29 30 31 33 32 31 32
4 5 2 2 2 2 3 4 4 4 7 6 4 2 1 4 9 7 1 2 2 2 3 3 0 2 3 4 4 6 8 7 7 8 7 9 13 17 20 23 24 25 26 27 27 28 29 29 29 28 26 25 23 21 21 20 19 18 17 16 15 17 21 25 24 21 20 20 19 18 19 20 20 21 22 24 26 28 29 30 31 31 32 31 31 31
5 4 3 2 2 1 1 2 2 5 7 5 4 2 3 5 6 6 1 3 3 3 4 2 2 5 5 7 7 8 10 11 10 9 8 12 17 21 23 26 27 27 28 28 29 30 30 30 30 29 28 26 25 24 24 23 21 21 21 21 22 24 25 25 23 20 19 19 20 21 23 25 26 26 25 25 25 26 25 26 27 27 28 30 31 32
6 5 2 1 2 2 2 3 2 4 6 4 2 1 2 2 3 5 2 4 4 3 3 2 3 5 6 8 8 9 10 11 9 7 8 15 21 24 25 26 27 28 29 29 30 29 29 30 30 30 28 26 25 25 24 24 23 22 22 22 22 22 21 20 19 19 19 19 20 21 23 25 26 26 25 24 23 23 23 24 25 26 27 29 31 32
6 4 4 3 1 2 2 2 3 4 5 4 4 4 1 1 3 5 4 2 4 3 4 4 3 5 6 8 9 9 9 8 5 7 14 22 25 25 26 27 27 27 28 30 31 31 30 29 29 29 28 27 26 26 24 24 24 24 23 22 21 21 20 19 19 18 18 18 18 19 20 21 22 22 22 22 22 22 23 23 24 26 27 29 31 32
4 2 4 5 1 2 4 2 3 4 5 5 6 5 1 1 2 4 4 2 2 3 4 5 6 8 8 8 9 7 6 5 4 10 20 26 27 27 27 28 28 28 29 29 31 32 32 31 30 29 28 27 27 26 25 24 24 24 23 22 21 21 20 20 19 19 19 19 18 18 18 18 18 18 19 20 21 22 23 24 26 27 28 29 31 32
5 4 4 3 3 3 4 3 4 4 3 3 6 5 2 2 4 5 2 3 3 3 5 7 9 9 8 9 8 4 2 4 8 16 25 27 26 27 27 28 30 30 30 30 30 31 32 31 30 29 29 29 28 27 26 26 25 25 24 22 21 21 21 19 19 19 19 19 18 17 16 16 16 17 18 19 21 23 24 26 28 29 30 31 31 32
2 2 2 3 4 4 5 3 3 4 3 3 4 3 1 4 4 2 3 5 4 5 6 7 9 7 6 8 8 6 9 14 18 25 28 26 26 28 28 28 29 29 29 30 30 30 31 30 30 30 30 31 30 28 27 27 27 27 25 23 22 22 20 19 19 20 20 19 17 16 16 16 16 17 18 20 22 24 26 28 29 30 31 32 32 32
1 1 0 2 3 3 4 3 3 4 3 3 2 1 4 4 2 3 4 4 6 8 8 8 7 5 5 10 12 14 19 23 24 27 28 28 28 29 29 29 29 28 28 28 28 29 28 28 28 29 30 30 29 28 29 29 29 28 26 24 22 21 19 18 19 20 20 18 17 16 16 16 17 18 20 22 24 26 29 29 30 30 31 32 32 31
4 3 2 3 3 2 2 2 2 4 2 3 3 2 2 3 3 2 4 7 10 12 11 10 8 6 9 15 19 22 25 26 27 28 29 30 30 29 29 29 28 28 28 27 28 28 27 27 27 28 29 29 28 27 29 30 30 28 26 23 22 20 19 20 20 20 19 18 17 17 18 18 19 20 21 24 26 28 31 32 32 31 31 31 31 30
3 4 3 4 2 3 3 4 4 5 4 4 5 2 3 4 2 3 7 10 12 12 12 12 11 12 16 21 25 26 26 27 28 30 31 31 31 30 30 28 27 28 28 28 28 28 26 27 28 29 30 31 29 28 28 29 28 26 24 22 21 20 20 20 19 18 17 17 18 19 20 20 21 21 23 25 28 30 32 33 32 32 31 30 29 27
3 4 4 3 2 3 5 5 4 4 6 5 2 2 3 2 5 8 9 9 10 10 11 14 16 18 21 24 26 27 28 29 30 32 32 32 32 31 30 29 28 28 29 29 29 29 28 28 29 30 32 31 28 27 27 27 26 24 23 22 20 19 19 19 18 17 17 17 19 20 21 21 22 23 25 27 30 32 33 33 32 31 29 28 26 25
1 2 4 1 2 2 2 4 4 2 4 7 9 10 8 8 10 10 7 8 10 11 13 17 20 22 24 25 27 28 29 31 32 32 31 31 32 31 30 29 29 29 31 31 30 29 29 30 31 32 31 29 27 26 26 27 25 22 22 21 19 17 17 18 19 19 19 19 20 21 22 23 24 26 28 30 33 34 33 31 29 28 27 25 24 23
2 2 2 0 1 1 2 2 2 4 11 15 18 20 19 17 14 11 11 14 17 19 20 21 23 25 26 27 28 29 30 31 32 31 30 31 32 31 30 30 30 31 31 30 28 28 30 31 32 31 28 26 26 25 23 21 19 18 19 18 16 16 18 20 21 21 21 20 20 21 22 24 26 28 31 34 35 33 30 27 25 25 24 24 24 23
1 3 2 0 1 2 4 8 8 12 18 22 24 27 28 25 21 19 21 24 25 25 26 26 26 27 28 28 28 29 30 30 30 30 31 31 32 31 30 30 31 31 30 27 26 27 28 30 30 27 25 24 23 22 19 16 13 13 14 14 15 17 19 20 20 20 20 19 20 21 23 26 29 32 34 34 32 28 26 25 24 24 24 24 24 25
1 1 1 1 1 2 8 11 11 12 17 22 24 25 26 26 25 26 28 28 28 28 29 28 27 27 28 28 27 28 30 30 29 29 31 32 31 30 30 30 30 30 27 25 24 24 26 28 27 23 21 21 20 19 17 14 11 11 12 14 15 16 16 16 17 17 18 18 20 23 25 28 31 33 32 30 27 25 24 24 23 24 25 25 24 24
3 3 2 2 1 5 7 7 5 4 10 17 22 25 28 28 28 29 29 30 30 29 29 29 28 26 26 27 27 29 30 30 29 30 31 32 31 29 29 29 28 26 24 22 23 24 25 25 22 17 16 17 16 13 11 9 8 11 12 12 13 14 14 15 16 17 18 20 22 25 28 29 30 29 27 24 23 23 24 23 22 22 22 22 22 21
10 6 6 5 6 9 11 12 11 10 14 21 27 28 30 30 28 29 31 32 31 29 27 28 29 28 28 28 28 29 30 31 30 30 31 32 30 28 28 27 25 23 22 22 23 24 24 23 20 14 12 11 9 7 7 8 10 11 11 11 12 13 14 16 17 19 21 23 25 26 27 27 26 24 22 21 21 21 23 23 22 20 19 19 18 18
Wind_Direction
136 164 243 228 222 209 206 200 208 215 186 222 264 268 259 262 280 282 272 255 201 334 289 229 224 248 255 263 218 193 203 218 227 228 228 223 222 225 226 228 228 228 230 231 230 229 229 230 229 228 228 228 225 223 224 226 225 223 221 220 217 215 215 217 217 218 220 221 221 223 224 224 224 224 226 225 224 224 225 224 225 229 232 235 238 244
90 196 237 222 214 213 207 201 218 237 224 239 247 311 297 248 265 282 277 275 173 139 279 301 261 260 259 268 203 182 193 214 217 220 228 227 228 229 229 231 231 231 232 232 232 231 230 229 227 226 226 227 227 227 226 228 229 227 225 225 224 220 219 221 223 224 226 227 227 229 231 232 231 231 232 231 230 229 228 228 229 230 234 236 240 246
32 261 249 227 198 191 194 186 196 224 232 235 178 47 297 258 269 288 290 303 24 140 262 301 224 256 262 269 235 196 203 218 216 219 228 231 234 236 235 235 235 234 234 233 233 232 231 230 227 225 225 227 229 230 231 232 231 230 229 228 227 225 224 224 227 230 232 234 233 233 237 238 236 235 235 235 236 235 233 233 233 234 236 236 238 242
265 254 246 210 172 166 214 198 174 223 255 223 168 162 264 260 325 282 294 333 16 62 257 185 212 276 292 309 277 226 225 231 223 226 234 238 240 241 240 240 240 238 236 237 236 234 232 230 228 227 226 227 229 232 235 236 234 231 230 230 229 227 227 227 231 235 237 237 235 233 235 236 235 235 234 233 232 233 234 234 234 236 237 234 235 239
235 247 221 142 158 169 224 230 159 196 267 234 196 193 236 251 223 219 262 333 357 358 356 75 17 319 332 343 308 279 258 245 230 228 236 239 242 246 248 248 247 244 242 242 241 238 236 232 230 230 229 230 231 233 236 237 236 233 231 232 231 229 227 228 232 236 236 234 233 232 230 230 231 230 230 229 229 229 231 233 234 236 235 235 240 243
255 257 216 210 232 173 198 229 181 181 231 294 228 205 216 234 238 245 299 1 24 351 323 40 33 298 318 328 294 322 333 277 246 235 242 245 246 249 252 251 250 249 247 245 246 244 241 236 233 232 233 232 233 235 238 239 238 235 234 232 230 229 228 228 233 236 235 234 234 233 230 228 227 227 227 229 231 233 234 235 235 235 236 238 244 242
256 265 169 175 201 165 185 254 216 166 136 312 244 204 207 211 225 275 294 91 64 289 311 43 108 255 316 319 292 320 323 302 298 255 256 259 258 254 254 256 254 252 249 247 248 248 244 240 235 233 234 235 236 237 237 237 237 236 235 232 228 227 228 229 234 236 236 238 238 236 234 233 232 231 231 231 234 237 237 237 235 234 237 242 242 237
215 253 80 126 144 145 238 275 224 152 124 250 238 170 173 176 187 217 183 169 220 246 341 15 104 146 307 285 294 328 328 320 320 298 277 269 263 258 259 262 260 258 254 250 248 248 247 242 237 235 235 237 238 237 236 235 236 236 235 232 228 227 230 232 235 237 240 244 243 239 237 237 236 237 238 237 237 237 236 234 235 234 237 240 238 234
166 129 175 172 107 163 228 228 177 152 151 246 220 134 147 157 169 176 137 139 335 49 331 325 43 96 282 278 313 350 359 337 321 314 306 297 291 279 270 269 267 264 260 256 252 250 250 246 241 238 237 237 236 236 237 237 237 237 235 232 229 229 232 235 237 239 243 246 245 242 241 239 238 238 240 240 238 237 235 235 234 231 232 235 232 231
279 192 209 157 144 226 236 228 166 167 212 233 144 98 77 67 78 102 112 123 45 42 270 292 360 92 275 296 335 5 12 341 318 315 309 314 320 316 304 294 285 277 269 262 257 252 251 251 245 239 235 234 234 235 237 237 237 237 235 232 232 233 235 236 239 242 245 248 249 247 245 243 239 236 236 235 234 234 234 234 230 227 227 229 228 229
307 279 243 153 197 225 232 242 173 183 202 138 113 81 41 24 36 44 52 97 68 7 256 266 292 102 358 297 324 350 334 320 315 319 321 324 330 333 332 326 312 298 283 271 262 252 249 250 246 238 233 232 233 234 237 239 239 238 237 236 235 236 236 237 241 245 248 252 255 251 249 247 242 237 235 234 234 233 230 228 226 223 223 225 225 227
339 328 224 243 251 269 236 192 59 360 44 101 102 80 50 318 5 23 350 45 90 261 256 256 260 91 90 291 325 326 316 324 317 307 317 325 331 338 345 346 339 321 296 280 268 256 248 246 243 236 232 232 233 235 240 243 243 241 239 238 237 236 238 240 244 248 251 253 254 252 251 250 245 241 239 238 238 235 227 222 222 221 221 222 224 225
339 257 303 296 289 27 49 99 9 360 29 89 104 84 111 302 4 352 312 347 187 229 239 242 256 82 152 216 281 313 321 332 331 322 326 331 337 348 357 360 356 346 319 291 274 261 251 246 244 239 233 232 234 240 247 249 247 245 242 240 239 240 242 244 246 249 250 251 251 250 251 252 249 243 240 239 239 235 226 219 220 221 222 226 226 224
329 312 346 349 331 15 65 105 9 330 23 91 135 122 154 135 60 274 275 293 255 259 251 248 256 278 265 230 240 280 289 297 334 9 16 13 7 6 8 7 3 357 343 316 289 273 262 253 248 243 236 234 239 251 257 253 248 247 244 242 242 244 246 248 249 249 250 252 253 250 250 252 250 244 239 235 234 232 226 220 220 221 228 238 235 228
313 299 336 2 319 341 36 116 152 156 72 34 165 137 137 147 145 233 234 205 238 279 284 273 262 167 177 187 227 254 270 323 20 24 26 24 19 16 15 13 7 358 350 336 314 292 279 268 257 247 240 237 242 257 262 256 249 248 247 246 248 250 251 252 253 253 252 253 255 253 254 254 249 245 241 236 234 233 226 222 220 219 228 240 240 233
123 258 271 288 300 351 14 336 59 98 74 288 137 91 65 170 148 159 191 177 175 331 311 285 242 197 168 218 267 272 315 17 23 21 24 21 15 16 17 14 8 358 346 336 325 311 294 281 269 257 247 242 244 257 265 259 253 251 249 249 250 252 255 257 257 257 256 257 257 258 261 261 251 246 244 240 238 235 227 223 224 224 232 238 236 233
104 246 286 327 348 32 35 349 26 68 196 276 55 79 232 169 123 116 183 32 73 94 285 282 238 300 347 281 309 350 14 16 16 16 19 17 13 13 14 13 9 1 347 331 322 316 306 295 284 273 259 249 250 263 271 265 256 252 249 248 247 246 252 255 254 255 257 258 260 262 266 263 254 247 248 247 245 241 232 225 226 231 236 236 232 229
132 231 300 350 11 343 0 3 14 39 77 92 77 204 211 95 90 105 118 3 38 114 278 320 227 301 305 235 321 6 18 7 4 7 9 10 10 8 6 8 10 4 353 335 320 312 306 303 297 287 271 256 254 265 274 271 260 253 252 255 256 258 261 261 259 260 264 265 265 267 268 265 257 249 248 250 252 253 243 230 228 231 233 231 230 229
98 224 294 312 253 304 351 27 1 354 26 81 148 197 125 102 43 23 97 123 22 205 284 318 310 260 204 201 341 10 10 352 351 360 4 2 0 359 358 1 4 2 357 344 329 318 312 310 304 292 276 264 260 266 273 273 266 260 261 265 268 269 266 263 259 256 263 269 267 265 264 262 259 253 248 248 250 251 245 234 230 231 230 229 228 227
66 108 273 284 268 305 3 42 28 328 346 23 34 8 33 126 154 81 103 153 173 187 245 310 331 265 219 194 149 56 358 346 350 356 356 349 350 355 355 357 1 4 3 356 345 333 324 317 307 294 282 273 266 265 271 275 272 268 268 269 268 263 259 260 258 246 242 249 248 250 252 251 251 250 247 246 246 246 244 237 231 229 228 227 226 226
44 83 258 286 314 27 31 38 129 244 297 356 29 18 353 360 78 118 44 90 132 153 180 222 297 264 246 201 143 105 1 338 349 353 348 348 352 356 359 360 2 6 8 7 3 355 347 335 315 297 285 277 271 268 272 276 276 275 273 273 270 261 254 255 258 251 243 238 233 238 244 244 245 246 246 247 247 246 243 236 230 227 227 227 226 227
41 84 187 317 354 30 251 253 208 210 216 166 100 62 12 354 72 110 312 324 82 130 160 167 258 262 248 160 126 109 350 336 8 11 353 351 354 357 2 4 3 4 4 3 4 4 2 357 342 316 292 278 272 272 274 277 279 279 279 279 276 269 261 257 256 255 250 245 241 242 244 244 245 247 250 250 247 243 239 232 228 227 228 227 227 230
98 97 80 357 311 262 259 278 342 333 134 111 85 67 111 73 74 116 194 268 334 355 145 122 267 267 257 119 99 53 342 16 27 22 2 353 356 358 2 4 1 360 358 353 353 357 360 2 358 346 324 302 289 286 287 287 286 285 283 283 280 277 272 265 260 257 254 253 252 249 247 246 246 250 253 250 243 237 231 227 227 228 229 230 231 234
62 78 59 331 302 310 307 326 9 20 58 70 21 24 86 57 65 135 176 183 230 265 164 100 265 268 271 90 66 14 338 41 22 17 8 356 355 359 2 4 2 358 353 348 346 347 348 351 355 355 349 335 320 311 305 300 295 290 286 284 282 279 274 268 264 261 256 253 252 250 246 246 250 254 253 249 241 234 229 226 227 229 232 234 235 236
26 60 78 53 348 343 345 348 350 353 27 58 323 6 51 55 62 74 105 75 301 234 168 177 238 250 251 57 41 17 7 8 0 1 4 358 354 357 0 4 6 3 358 352 346 343 342 345 350 352 350 345 336 326 316 306 299 293 287 284 282 279 275 270 268 264 257 251 252 253 249 251 260 261 255 249 241 233 229 229 232 235 238 239 239 243
102 113 112 106 134 224 247 272 266 290 344 357 303 338 2 31 37 2 38 82 263 244 173 188 233 271 288 341 28 22 9 357 347 349 354 358 358 359 3 6 7 9 7 3 357 352 349 349 349 348 346 342 337 331 324 315 306 298 292 287 283 280 276 272 270 267 263 262 265 266 260 260 266 265 257 250 242 236 234 237 240 243 243 242 245 251
96 63 117 137 161 189 195 218 228 159 13 314 302 308 315 53 71 75 105 177 206 214 244 227 222 280 291 327 13 14 4 343 330 341 348 354 1 5 10 12 12 14 14 12 9 5 1 357 353 350 347 342 338 335 331 324 317 310 303 296 289 285 280 275 273 273 274 274 274 270 264 262 265 263 256 249 243 239 239 241 244 244 241 243 251 255
90 25 323 145 183 209 194 206 212 120 188 243 263 277 271 216 155 141 184 214 174 180 272 230 143 242 267 333 10 344 347 328 323 339 345 354 7 13 17 18 18 19 17 16 15 12 10 7 2 358 354 349 345 340 334 329 324 318 312 306 300 295 289 284 279 277 276 273 269 267 266 265 264 257 249 244 242 240 241 242 243 244 244 248 252 251
109 156 199 155 222 236 212 223 229 199 219 226 226 244 253 232 211 212 226 209 158 197 259 231 135 253 268 98 321 294 316 310 314 335 347 5 19 23 24 24 22 21 20 20 19 18 17 14 11 7 2 358 354 349 344 338 331 324 318 312 307 303 297 292 285 280 278 274 270 267 265 262 258 252 247 244 244 244 244 245 248 251 253 252 247 241
103 190 204 177 234 248 239 246 245 233 242 249 239 236 230 221 223 230 241 212 178 226 262 272 277 275 262 218 263 318 358 352 354 12 21 27 26 26 27 26 23 21 19 19 18 17 17 16 15 13 9 6 4 360 356 351 344 335 327 319 313 310 306 302 299 293 289 285 279 271 265 261 255 252 250 249 250 252 253 257 261 260 253 245 240 240
71 246 216 160 271 268 259 268 265 226 211 231 261 255 230 225 231 238 245 220 204 250 268 279 290 285 262 271 316 353 22 38 47 43 36 32 29 27 24 21 18 16 13 12 11 9 8 7 6 6 5 6 8 7 5 4 1 352 345 340 333 331 329 321 318 318 309 306 300 278 266 264 259 256 256 256 257 260 261 262 261 257 249 244 246 250
85 293 346 69 344 276 288 8 360 354 186 233 262 255 235 225 217 222 231 210 189 209 248 301 299 264 256 301 325 347 39 49 33 25 27 30 30 26 21 15 11 7 4 3 1 359 358 357 356 355 355 355 356 358 1 5 5 3 6 10 10 19 16 7 21 31 32 45 25 340 295 293 292 281 276 274 272 271 269 267 264 261 260 259 260 262
132 137 131 104 230 274 302 23 42 33 3 290 253 233 220 202 185 214 239 221 193 176 196 256 245 220 231 287 319 332 287 219 269 343 5 6 12 12 7 3 359 355 353 351 349 348 348 347 346 345 344 344 343 343 345 346 345 348 359 4 4 13 9 2 8 358 340 336 343 328 313 311 309 302 298 296 293 288 284 282 279 274 271 269 269 269
133 131 164 160 164 263 289 354 33 13 307 260 240 221 204 181 177 193 224 226 209 160 174 204 209 208 238 252 273 313 303 278 279 317 339 348 354 355 352 351 348 344 342 339 338 339 339 338 336 334 332 332 331 330 331 329 326 324 327 333 331 321 319 318 318 315 308 302 304 303 296 291 288 285 286 286 284 280 278 277 276 274 273 274 275 273
126 126 156 157 146 235 295 27 22 294 247 245 275 290 208 154 154 148 139 264 233 166 142 119 101 276 301 316 322 327 325 319 306 304 326 352 354 351 347 345 343 340 337 335 333 332 332 331 330 328 326 323 320 318 318 315 310 305 301 302 300 296 299 304 305 304 298 291 288 285 280 278 278 280 282 281 278 276 275 275 275 276 278 281 282 282
140 137 147 148 161 187 59 104 178 251 253 271 319 2 66 82 110 113 60 280 244 190 150 130 273 286 319 337 344 346 340 333 318 310 338 357 351 346 341 336 334 332 329 328 327 325 325 324 324 323 321 318 317 317 316 314 310 304 298 297 298 300 303 305 306 304 298 291 288 284 281 283 287 290 290 287 284 283 283 284 285 287 289 290 289 289
143 138 149 189 198 166 163 207 239 294 290 284 286 247 117 108 149 146 168 260 249 206 172 174 281 301 319 330 339 346 342 338 327 319 345 348 340 337 333 328 326 324 321 320 318 316 315 315 316 316 313 311 312 314 314 313 312 310 307 306 306 306 308 309 309 307 304 299 295 291 288 287 288 289 289 289 290 291 292 293 294 295 296 296 295 294
142 156 166 176 212 124 129 272 309 310 278 251 237 247 248 271 215 141 118 284 266 240 227 205 240 284 296 313 327 338 347 347 319 302 328 335 331 329 326 323 321 318 315 313 312 310 308 306 307 307 304 303 306 310 310 308 307 307 307 308 308 307 307 308 309 309 308 305 301 296 292 288 285 286 289 292 295 297 298 300 301 302 303 302 300 299
96 66 122 139 199 109 129 206 232 229 246 235 229 248 297 279 209 118 77 311 266 262 251 218 234 269 280 298 315 333 351 346 281 295 319 325 323 324 323 319 315 312 309 308 308 308 308 305 304 302 298 298 303 306 305 302 302 302 303 305 304 302 304 308 311 311 309 308 304 297 291 289 290 292 295 298 301 304 307 309 311 312 311 308 305 303
77 58 96 153 221 174 147 195 231 237 251 218 219 251 296 158 146 97 40 280 257 280 260 225 237 263 283 303 316 329 312 285 283 300 312 316 314 317 319 317 313 309 305 302 302 306 308 307 305 303 298 296 299 303 301 297 295 296 299 300 298 299 304 308 307 305 305 305 302 296 292 293 295 296 300 305 310 313 314 316 316 315 313 309 305 302
87 89 127 178 198 183 175 211 262 264 248 223 239 267 79 111 114 120 222 236 246 267 253 229 238 258 289 306 304 285 280 290 297 304 310 312 310 312 315 314 311 306 302 299 300 303 306 306 304 301 297 296 298 300 297 293 291 292 294 294 292 297 304 305 299 298 300 300 295 292 293 295 295 298 304 309 312 312 312 313 313 311 310 308 304 300
150 120 199 170 169 183 178 188 280 285 241 187 205 117 101 120 173 217 239 268 284 270 250 229 233 259 302 306 300 295 297 303 306 308 312 312 309 310 313 313 310 306 302 300 300 302 305 305 303 299 297 297 298 298 293 288 286 288 289 289 292 299 302 296 291 293 295 292 288 289 292 293 294 298 304 308 310 309 308 308 307 306 307 307 304 299
174 172 228 195 172 155 145 163 253 263 219 126 123 123 108 143 182 230 301 306 297 283 262 240 242 283 312 311 308 305 304 307 308 309 309 309 307 308 310 311 310 307 305 305 305 304 303 304 303 302 299 297 297 298 292 283 280 283 286 288 294 298 296 291 290 292 291 285 284 287 289 291 293 296 301 306 308 306 304 304 304 304 306 306 303 299
193 174 205 224 189 142 165 201 213 211 190 119 106 141 159 146 149 320 309 295 291 287 272 262 272 295 307 310 309 307 305 305 307 308 307 306 305 306 308 309 309 308 308 309 309 308 306 304 303 303 301 299 298 297 288 276 273 278 281 286 292 294 293 293 293 293 289 284 283 286 288 289 291 294 300 305 306 304 303 302 301 302 304 305 300 297
217 171 174 221 225 169 187 212 214 194 181 156 133 268 239 242 300 310 298 282 284 287 282 282 288 294 301 306 305 303 302 303 305 307 307 305 305 305 306 307 308 308 309 310 310 311 310 307 304 302 301 300 298 294 282 268 264 268 273 280 287 289 292 295 294 293 292 289 285 285 285 286 289 295 302 305 305 304 302 300 299 300 303 302 296 293
246 141 137 172 266 289 274 220 191 196 248 259 282 296 293 297 311 316 306 291 296 298 294 292 293 296 301 304 301 299 300 302 304 306 307 306 306 305 306 306 306 308 310 310 310 311 309 306 303 301 300 299 297 291 276 261 259 267 274 279 283 286 290 293 294 295 294 289 283 281 282 286 292 298 302 305 305 304 301 298 298 301 302 298 292 291
318 143 138 148 276 315 307 217 174 344 315 300 303 309 309 311 319 322 313 309 310 309 304 301 301 301 303 303 300 299 300 303 304 305 306 307 306 306 307 307 307 309 310 310 310 310 309 307 303 300 300 300 295 286 273 265 265 270 273 277 284 290 292 292 291 292 290 283 279 279 283 290 296 300 303 304 304 303 301 299 300 301 299 296 295 296
22 93 105 238 184 178 248 267 292 310 299 290 297 305 306 308 311 311 309 310 310 309 308 307 305 304 303 304 304 302 303 305 305 303 304 306 306 307 308 308 309 310 310 309 309 310 313 312 306 301 302 300 291 281 279 281 279 273 274 286 295 296 293 291 290 290 287 281 280 283 289 296 300 302 303 304 304 306 306 305 304 301 298 297 299 298
247 3 158 155 64 293 277 281 295 301 290 283 288 294 296 297 300 302 306 308 307 307 308 308 308 306 304 305 306 305 304 305 304 302 303 305 305 306 307 308 309 310 309 308 308 310 315 316 310 305 303 296 287 281 280 278 277 283 295 302 300 296 297 298 296 292 287 283 284 289 295 299 301 303 304 306 309 311 310 307 304 301 299 299 299 297
209 260 182 123 352 275 260 260 265 272 277 279 283 289 292 294 297 299 302 304 304 306 308 307 308 308 306 306 307 306 305 304 302 302 302 303 303 304 305 307 310 310 309 308 306 308 315 315 311 307 303 295 289 288 284 281 293 306 306 301 297 298 301 300 295 289 286 286 290 296 299 301 303 306 309 311 314 314 311 310 308 305 304 305 305 303
196 186 156 170 221 242 251 261 261 250 257 273 282 288 292 294 296 297 298 300 302 304 305 304 304 306 306 307 307 306 304 303 302 301 302 302 302 302 303 306 310 310 309 308 306 310 317 317 311 307 303 298 299 308 312 311 311 307 299 295 297 299 297 292 289 287 288 292 296 300 302 304 308 312 313 313 313 313 314 317 318 316 315 316 315 312